CZ-3B DEB, 42475

Orbit data source: Space-Track

CZ-3B DEB, 42475 is space debris in HEO originally from a launch on Mon, 19 Dec 2011 UTC launched from the Xichang Space Center, China (XSC). Debris objects in space refer to the collection of defunct objects orbiting the Earth. Examples of debris include non-operational satellites, rocket bodies, and fragments generated from explosions, collisions, or faulty payload assembly.

Loading next visibility...
Identifier
42475, 2011-077AQ
Orbit
HEO
Country
Flag of CNCN / PRC
Related business
Manufacturer
CALT
Mission
Spacecraft
Bus & Motor
Unknown
Mass
Unknown
Launch date (UTC)
2011-12-19 (15 years ago)
Launch vehicle
Unknown
Launch site
Xichang Space Center, China (XSC)
Object type
Payload
Rocket body
Debris
Shape & HBR
Unknown shape, 0.2 m
Radar Cross Section
Medium (>0.1 m² and <1 m²)

Expand to show TLE details & history
Last TLE update: 1 week ago

TLE from 1 week ago
0 CZ-3B DEB
1 42475U 11077AQ  26248.26729750  .00000048  00000-0  89681-3 0  9995
2 42475  26.1929 282.9343 7424381 165.7902 240.9272  1.91475872 34426
Epoch: 2026-09-05T06:24Z
TLE epoch observation values (Epoch: 2026-09-05T06:24:54.503Z)
Latitude
-0.00003°
Longitude
-157.63137°
Altitude
37,482.082 km
Speed
1.904 km/s
True Right ascension
18h 51m 53s
True Declination
0° 00' 00"
Sunlit
Object was in daylight at epoch
Visualization orbit readout
Latitude
Unknown
Longitude
Unknown
Altitude
Unknown
Speed
Unknown
Apparent Right ascension
Unknown
Apparent Declination
Unknown
Sunlit
N/A
Visualization observer readout
Local Sidereal Time
16:29:47
Azimuth
Unknown
Elevation
Unknown
Doppler factor
Unknown
Orbital elements
Apogee altitude
41,361.242 km
Perigee altitude
678.553 km
Semi-major axis
27,398.034 km
Eccentricity
0.74244
Inclination
26.1929°
RAAN
282.9343°
Arg. of periapsis
165.7902°
True anomaly
194.22125°
Mean anomaly
240.9272°
Eccentric anomaly
215.95231°
Mean motion
0.47859 °/min
Orbital period
752.21 mins
BSTAR
0.00089681
Loading maneuver chart data...
Computing Atmospheric mass density...
Loading historical data...
Loading historical data...
Loading historical data...
Loading historical data...
Loading historical data...
Loading historical data...
Loading historical data...

Documentation

Showing up to 5 results
|